Hua Hin, Thailand

6:49 PM +07 on May 29, 2017 (GMT +0700)
Hua Hin Aero

Weather History for VTPH - August, 2014

Change the Weather History Date:

Wednesday, August 13, 2014

  Actual Average Record
Temperature  
Mean Temperature 88 °F -  
Max Temperature 98 °F 91 °F - ()
Min Temperature 78 °F 77 °F - ()
Cooling Degree Days 23    
Growing Degree Days 38 (Base 50)    
Moisture  
Dew Point 74 °F    
Average Humidity 61    
Maximum Humidity 89    
Minimum Humidity 34    
Precipitation  
Precipitation T in 0.14 in - ()
Sea Level Pressure  
Sea Level Pressure 29.73 in    
Wind  
Wind Speed 4 mph ()    
Max Wind Speed 14 mph    
Max Gust Speed -    
Visibility 6.3 miles    
Events Rain    
T = Trace of Precipitation, MM = Missing Value Source: Averaged Metar Reports

Daily Weather History Graph

Daily Weather History Graph

Search for Another Location

Airport or City:

Trip Planner

Search our weather history database for the weather conditions in past years. The results will help you decide how hot, cold, wet, or windy it might be!

Date:

Astronomy

Aug. 13, 2014 Rise Set
Actual Time 6:08 AM +07 6:41 PM +07
Civil Twilight 5:46 AM +07 7:03 PM +07
Nautical Twilight 5:20 AM +07 7:29 PM +07
Astronomical Twilight 4:54 AM +07 7:55 PM +07
Moon 8:49 PM +07 (8/13) 8:22 AM +07 (8/13)
Length of Visible Light 13h 17m
Length of Day
12h 33m
Waning Gibbous, 91% of the Moon is Illuminated
Aug 13
Waning Gibbous
Aug 17
Last Quarter
Aug 25
New
Sep 2
First Quarter
Sep 9
Full

Hourly Weather History & Observations

Time (+07) Temp. Heat Index Dew Point Humidity Pressure Visibility Wind Dir Wind Speed Gust Speed Precip Events Conditions
1:00 AM 82 °F - 72 °F 66% 29.79 in 6 mi Calm Calm - -   Scattered Clouds
4:00 AM 81 °F - 74 °F 72% 29.73 in 6 mi Calm Calm - -   Scattered Clouds
7:00 AM 80 °F - 73 °F 74% 29.75 in 6 mi WSW 4.6 mph - -   Scattered Clouds
7:00 AM 78.8 °F - 73.4 °F 83% 29.74 in 6.2 mi Calm Calm - N/A   Scattered Clouds
8:00 AM 84.2 °F 90.9 °F 73.4 °F 70% 29.74 in 6.2 mi Variable 2.3 mph - N/A   Partly Cloudy
9:00 AM 87.8 °F 97.6 °F 75.2 °F 66% 29.74 in 6.2 mi ESE 6.9 mph - N/A   Partly Cloudy
10:00 AM 91 °F - 73 °F 47% 29.76 in 7 mi SE 4.6 mph - -   Scattered Clouds
10:00 AM 87.8 °F 95.6 °F 73.4 °F 62% 29.74 in 6.2 mi SE 10.4 mph - N/A   Partly Cloudy
12:00 PM 89.6 °F 102.2 °F 77.0 °F 66% 29.74 in 6.2 mi SE 13.8 mph - N/A   Scattered Clouds
1:00 PM 96 °F - 72 °F 37% 29.74 in 7 mi West 8.1 mph - -   Scattered Clouds
1:00 PM 93.2 °F 100.5 °F 71.6 °F 49% 29.71 in 6.2 mi Variable 8.1 mph - N/A   Scattered Clouds
2:00 PM 96.8 °F 107.3 °F 73.4 °F 47% 29.71 in 6.2 mi WNW 9.2 mph - N/A   Scattered Clouds
3:00 PM 96.8 °F 105.1 °F 71.6 °F 44% 29.68 in 6.2 mi West 11.5 mph - N/A   Partly Cloudy
4:00 PM 97 °F - 71 °F 34% 29.69 in 7 mi WNW 6.9 mph - -   Partly Cloudy
4:00 PM 95.0 °F 104.5 °F 73.4 °F 49% 29.68 in 6.2 mi NW 6.9 mph - N/A   Scattered Clouds
5:00 PM 91.4 °F 102.5 °F 75.2 °F 59% 29.68 in 6.2 mi Variable 4.6 mph - N/A   Scattered Clouds
7:00 PM 84 °F - 77 °F 73% 29.74 in 6 mi Calm Calm - - Rain Light Rain
7:00 PM 80.6 °F 87.1 °F 77.0 °F 89% 29.71 in 6.2 mi NNW 3.5 mph - N/A   Scattered Clouds
10:00 PM 83 °F - 74 °F 69% 29.80 in 6 mi Calm Calm - -   Scattered Clouds